Regional Weather Roundup
Issued by NWS

Home | Current Version | Previous Version | Graphics & Text | Print | Product List | Glossary On
Versions: 1 2 3 4 5 6 7 8 9 10 11 12 13 14 15 16 17 18 19 20 21 22 23 24 25 26 27 28 29 30 31 32 33 34 35 36 37 38 39 40 41 42 43 44 45 46 47 48 49 50
000
ASUS43 KDMX 182001
RWRIA

WEATHER ROUNDUP FOR IOWA
NATIONAL WEATHER SERVICE DES MOINES IA
300 PM CDT WED OCT 18 2017

NOTE: "FAIR" INDICATES FEW OR NO CLOUDS BELOW 12,000 FEET WITH NO
SIGNIFICANT WEATHER AND/OR OBSTRUCTIONS TO VISIBILITY.

* - THESE STATIONS ARE NOT NWS STATIONS...THUS NOT UNDER NWS
QUALITY CONTROL.  THEY ALSO DO NOT REPORT WEATHER SUCH
AS PRECIPITATION OR FOG.

IAZ001>003-012>014-020>022-031>034-043>046-182100-
   NORTHWEST IOWA

CITY           SKY/WX    TMP DP  RH WIND       PRES   REMARKS
CARROLL *      SUNNY     88  63  42 SW15      29.91R HX  88
CHEROKEE *     CLOUDY    69  47  43 N13       29.93R
DENISON *      SUNNY     75  50  41 SW9G17    29.93R
LE MARS *      SUNNY     73  39  29 N15       29.93R
ORANGE CITY *  SUNNY     73  41  31 NE9G16    29.93S
SHELDON *      SUNNY     75  32  20 N13G18    29.91S
SIOUX CITY     SUNNY     72  47  40 N10       29.93R
SPENCER        SUNNY     72  40  31 N17       29.93R
STORM LAKE *   CLOUDY    70  45  40 NW13      29.93R
$$

IAZ055>058-069>071-079>083-090>094-182100-
   SOUTHWEST IOWA

CITY           SKY/WX    TMP DP  RH WIND       PRES   REMARKS
ATLANTIC *     SUNNY     72  50  46 SW15      29.93S
AUDUBON *      SUNNY     73  50  43 S9G18     29.93S
CLARINDA *     SUNNY     73  48  40 S15       29.96S
COUNCIL BLFS * SUNNY     73  50  43 SW12      29.92F
CRESTON *      SUNNY     72  48  43 SW16G23   29.96R
HARLAN  *      SUNNY     73  48  40 S14       29.95S
LAMONI         MOSUNNY   72  48  42 S17G24    29.96S
RED OAK *      SUNNY     73  48  40 S13G20    29.93S
SHENANDOAH *   SUNNY     75  48  38 S12G18    29.94S
$$

IAZ047>049-059>061-072>074-084-182100-
   CENTRAL IOWA

CITY           SKY/WX    TMP DP  RH WIND       PRES   REMARKS
AMES           SUNNY     73  50  44 S14G23    29.91F
ANKENY *       SUNNY     73  48  40 SW13G21   29.94S
BOONE *        SUNNY     75  48  38 SW14      29.90F
CHARITON *     SUNNY     73  48  40 S15G22    29.94F
DES MOINES     MOSUNNY   75  48  38 S15       29.92S
GRINNELL*      SUNNY     73  45  37 S15G23    29.95F
KNOXVILLE *    SUNNY     73  46  38 S17       29.93S
MARSHALLTOWN   SUNNY     73  49  42 S17       29.91F
NEWTON *       SUNNY     73  46  38 S16       29.93S
PELLA *        SUNNY     74  46  36 S15G22    29.95F
PERRY *          N/A     77  43  29 SW14G20   29.91F
$$

IAZ004>006-015-016-023>025-035-036-182100-
   NORTH CENTRAL IOWA

CITY           SKY/WX    TMP DP  RH WIND       PRES   REMARKS
ALGONA *       SUNNY     72  46  40 NW13G18   29.91R
CLARION *      SUNNY     75  48  38 W16G22    29.90S
ESTHERVILLE    SUNNY     70  40  33 N17       29.91S
FORT DODGE *   SUNNY     75  50  41 W13       29.91S
MASON CITY     SUNNY     72  48  42 W15       29.91S
FOREST CITY *    N/A     72  46  40 W12       29.90S
WEBSTER CITY * SUNNY     75  45  33 SW9G21    29.89R
IOWA FALLS *     N/A     74  47  38 S14G21    29.92R
$$

IAZ007>011-017>019-026>030-037>042-050>054-066-182100-
   NORTHEAST IOWA

CITY           SKY/WX    TMP DP  RH WIND       PRES   REMARKS
CEDAR RAPIDS   SUNNY     73  46  38 S18G25    29.95F
CHARLES CITY * MOSUNNY   75  45  33 SW16G24   29.90F
CLINTON *      SUNNY     72  46  39 S20       30.00F
DECORAH *      SUNNY     73  46  38 SW15G23   29.89R
DUBUQUE        SUNNY     71  47  42 SW20G29   29.95F
MONTICELLO *   SUNNY     73  45  35 S18G26    29.94F
OELWEIN *      SUNNY     73  46  38 S21G28    29.92S
WATERLOO       SUNNY     74  45  35 SW18      29.90F
$$

IAZ064-065-067-068-078-182100-
   EAST CENTRAL IOWA

CITY           SKY/WX    TMP DP  RH WIND       PRES   REMARKS
DAVENPORT      SUNNY     72  41  32 S20G25    30.01F
IOWA CITY      MOSUNNY   74  46  36 S18G25    29.98F
MUSCATINE *    SUNNY     73  45  35 S15G24    29.99F
QUAD CITIES    SUNNY     74  43  32 S15G21    29.99F
$$

IAZ062-063-075>077-085>089-095>099-182100-
   SOUTHEAST IOWA

CITY           SKY/WX    TMP DP  RH WIND       PRES   REMARKS
BURLINGTON     SUNNY     73  47  39 SW17G25   30.01F
FAIRFIELD *    SUNNY     73  45  35 S15G23    29.98F
FORT MADISON * SUNNY     73  46  38 S13G20    30.02F
KEOKUK *       SUNNY     72  45  37 S12G21    30.01F
OSKALOOSA *      N/A     73  46  37 SW18      29.97F
OTTUMWA        SUNNY     74  47  38 S16G22    29.97F
WASHINGTON *   MOSUNNY   73  46  38 S21       29.99F
$$

ABBREVIATIONS USED IN REMARKS
   TC - TEMPERATURES IN CELSIUS
  WCI - WIND CHILL INDEX
   HX - HEAT INDEX
  VSB - VISIBILITY
$$




USA.gov is the U.S. government's official web portal to all federal, state and local government web resources and services.